Provincetown, Massachusetts, United States (02657)
Lat: 42.06N, Lon: 70.18W
Wx Zone: MAZ022
Local Info
Past Weather Observations for Today

NOTE: This archive is for the closest National Weather Service station to Provincetown. Information may differ from the station used for current weather conditions.

Click here for Long-term Archive

Time Weather Temperature Dewpoint Humidity Pressure Winds Precip Visibility
18:56
Clear
73°F / 23°C 68°F / 20°C 83% 29.56 in
(1001 mb)
SSE 16.1 mph
(SSE 26 kph)
- 10SM
17:56
Partly Cloudy
75°F / 24°C 66°F / 19°C 74% 29.53 in
(1000 mb)
SSE 17.3 mph
(SSE 28 kph)
- 10SM
16:56
Partly Cloudy
77°F / 25°C 72°F / 22°C 83% 29.5 in
(999 mb)
SW 13.8 mph
(SW 22 kph)
- 7SM
16:28
Mostly Cloudy
Hazy
77°F / 25°C 72°F / 22°C 83% 29.5 in
(999 mb)
SSE 13.8 mph
(SSE 22 kph)
- 6SM
16:19
Partly Cloudy
79°F / 26°C 72°F / 22°C 79% 29.5 in
(999 mb)
SW 13.8 mph
(SW 22 kph)
- 7SM
15:56
Mostly Cloudy
79°F / 26°C 72°F / 22°C 79% 29.5 in
(999 mb)
SW 16.1 mph
(SW 26 kph)
- 8SM
14:56
Overcast
Hazy
79°F / 26°C 72°F / 22°C 79% 29.5 in
(999 mb)
SSE 12.7 mph
(SSE 20 kph)
- 6SM
13:56
Overcast
79°F / 26°C 72°F / 22°C 79% 29.5 in
(999 mb)
S 13.8 mph
(S 22 kph)
- 7SM
12:56
Overcast
79°F / 26°C 70°F / 21°C 74% 29.53 in
(1000 mb)
S 13.8 mph
(S 22 kph)
0.00 in
(0.00 mm)
9SM
12:39
Overcast
77°F / 25°C 70°F / 21°C 79% 29.53 in
(1000 mb)
S 13.8 mph
(S 22 kph)
0.00 in
(0.00 mm)
8SM
11:56
Overcast
Light Rain
73°F / 23°C 70°F / 21°C 89% 29.56 in
(1001 mb)
S 9.2 mph
(S 15 kph)
0.00 in
(0.00 mm)
9SM
11:45
Overcast
73°F / 23°C 70°F / 21°C 89% 29.56 in
(1001 mb)
S 9.2 mph
(S 15 kph)
0.00 in
(0.00 mm)
8SM
11:35
Overcast
Light Rain
73°F / 23°C 70°F / 21°C 89% 29.56 in
(1001 mb)
SSW 8.1 mph
(SSW 13 kph)
0.00 in
(0.00 mm)
10SM
10:56
Overcast
75°F / 24°C 66°F / 19°C 74% 29.59 in
(1002 mb)
SW 16.1 mph
(SW 26 kph)
0.01 in
(0.25 mm)
8SM
09:56
Mostly Cloudy
75°F / 24°C 70°F / 21°C 83% 29.59 in
(1002 mb)
SSE 18.4 mph
(SSE 30 kph)
0.00 in
(0.00 mm)
8SM
08:56
Overcast
Fog And Mist
73°F / 23°C 72°F / 22°C 94% 29.59 in
(1002 mb)
S 12.7 mph
(S 20 kph)
0.00 in
(0.00 mm)
5SM
07:56
Overcast
Light Rain
73°F / 23°C 72°F / 22°C 94% 29.59 in
(1002 mb)
S 12.7 mph
(S 20 kph)
0.00 in
(0.00 mm)
3SM
07:24
Overcast
Fog And Mist
73°F / 23°C 72°F / 22°C 94% 29.62 in
(1003 mb)
S 11.5 mph
(S 19 kph)
0.00 in
(0.00 mm)
5SM
06:56
Overcast
Light Rain
72°F / 22°C 72°F / 22°C 100% 29.62 in
(1003 mb)
SSE 8.1 mph
(SSE 13 kph)
0.00 in
(0.00 mm)
3SM
06:51
Overcast
Light Rain
73°F / 23°C 72°F / 22°C 94% 29.62 in
(1003 mb)
S 6.9 mph
(S 11 kph)
0.00 in
(0.00 mm)
2SM
06:18
Overcast
Fog
73°F / 23°C 72°F / 22°C 94% 29.62 in
(1003 mb)
S 8.1 mph
(S 13 kph)
- 1/2SM
06:07
Overcast
Fog And Mist
73°F / 23°C 72°F / 22°C 94% 29.62 in
(1003 mb)
S 6.9 mph
(S 11 kph)
- 1 3/4SM
05:56
Overcast
Fog And Mist
73°F / 23°C 72°F / 22°C 94% 29.62 in
(1003 mb)
S 5.8 mph
(S 9 kph)
- 3SM
05:38
Overcast
Fog And Mist
72°F / 22°C 72°F / 22°C 100% 29.65 in
(1004 mb)
S 8.1 mph
(S 13 kph)
- 2SM
05:14
Overcast
Fog And Mist
72°F / 22°C 72°F / 22°C 100% 29.65 in
(1004 mb)
S 9.2 mph
(S 15 kph)
- 1 3/4SM
04:56
Overcast
Fog And Mist
73°F / 23°C 72°F / 22°C 94% 29.65 in
(1004 mb)
S 6.9 mph
(S 11 kph)
- 3SM
04:53
Overcast
Fog And Mist
73°F / 23°C 72°F / 22°C 94% 29.65 in
(1004 mb)
S 6.9 mph
(S 11 kph)
- 3SM
04:42
Overcast
Fog And Mist
73°F / 23°C 72°F / 22°C 94% 29.65 in
(1004 mb)
SSE 8.1 mph
(SSE 13 kph)
- 2SM
04:05
Obscured
Fog
72°F / 22°C 70°F / 21°C 94% 29.65 in
(1004 mb)
S 10.4 mph
(S 17 kph)
- 1/2SM
03:56
Overcast
Fog And Mist
72°F / 22°C 70°F / 21°C 94% 29.65 in
(1004 mb)
S 9.2 mph
(S 15 kph)
- 1 1/4SM
03:35
Overcast
Fog And Mist
72°F / 22°C 70°F / 21°C 94% 29.65 in
(1004 mb)
Variable 4.6 mph
(Variable 7 kph)
- 1SM
03:01
Overcast
Fog And Mist
72°F / 22°C 70°F / 21°C 94% 29.68 in
(1005 mb)
S 6.9 mph
(S 11 kph)
- 3/4SM
02:56
Overcast
Fog And Mist
72°F / 22°C 70°F / 21°C 94% 29.65 in
(1004 mb)
S 9.2 mph
(S 15 kph)
- 2SM
02:54
Overcast
Fog And Mist
72°F / 22°C 70°F / 21°C 94% 29.65 in
(1004 mb)
S 5.8 mph
(S 9 kph)
- 3SM
02:18
Mostly Cloudy
72°F / 22°C 70°F / 21°C 94% 29.68 in
(1005 mb)
S 6.9 mph
(S 11 kph)
- 7SM
01:56
Clear
72°F / 22°C 70°F / 21°C 94% 29.65 in
(1004 mb)
S 4.6 mph
(S 7 kph)
- 7SM
00:56
Clear
72°F / 22°C 70°F / 21°C 94% 29.68 in
(1005 mb)
SW 9.2 mph
(SW 15 kph)
- 8SM
Time Weather Temperature Dewpoint Humidity Pressure Winds Precip Visibility


Weather for websites

WeatherForYou.com, LLC is not responsible for any damages or problems caused by this service. Current weather conditions are obtained from the closest station including government and personal stations which may have varying degrees of accuracy. Weather forecasts are derived from the NOAA NDFD. Like all things, this site belongs to Jesus Christ... He just trusts me to maintain it. If you have any questions or comments email webmaster@weatherforyou.com

Copyright © 2014, WeatherForYou.com LLC. All rights reserved.